Tracking 28091 objects as of 29-Sep-2023
HD Live streaming from Space Station
objects crossing your sky now

GEOS 2

Track GEOS 2 now!
GEOS 2 is classified as:


NORAD ID: 10981
Int'l Code: 1978-071A
Perigee: 36,034.3 km
Apogee: 36,055.9 km
Inclination: 8.0 °
Period: 1,449.0 minutes
Semi major axis: 42416 km
RCS: 2.0304 m2 (large)
Launch date: July 14, 1978
Source: European Space Agency (ESA)
Launch site: AIR FORCE EASTERN TEST RANGE (AFETR)
Your satellite tracking list
Your tracking list is empty




NASA's NSSDC Master Catalog

Two Line Element Set (TLE):
1 10981U 78071A   23271.44696174 -.00000342  00000-0  00000-0 0  9998
2 10981   8.0312 296.5441 0002547 305.9253  67.4649  0.99381714164134
Source of the keplerian elements: AFSPC